Temperature
18 18 18 18 18 18 18 18 18 18 18 18 18 18 18 18 17 17 17 17 17 17 17 17 16 16 16 16 16 16 16 16 15 15 15 15 15 15
18 18 18 18 18 18 18 18 18 18 18 18 18 18 17 17 17 17 17 17 17 17 17 17 16 16 16 16 16 16 16 16 15 15 15 15 15 15
18 18 18 18 18 18 18 18 18 18 17 17 17 17 17 17 17 17 17 17 17 17 16 16 16 16 16 16 16 16 15 15 15 15 15 15 15 14
18 18 18 18 18 18 18 17 17 17 17 17 17 17 17 17 17 16 16 16 16 16 16 16 16 16 16 15 15 15 15 15 15 15 15 15 14 14
18 18 18 18 18 17 17 17 17 17 17 17 17 17 17 17 16 16 16 16 16 16 16 16 16 15 15 15 15 15 15 15 15 15 14 14 14 14
17 17 17 17 18 18 17 17 17 17 17 17 17 17 16 16 16 16 16 16 15 16 15 15 15 15 15 15 15 15 15 14 14 14 14 14 14 14
17 17 17 17 17 17 17 17 17 17 17 17 16 16 16 16 16 16 16 15 15 15 15 15 15 15 15 15 15 15 14 14 14 14 14 14 14 13
17 17 17 17 17 17 17 17 17 17 16 16 16 16 16 16 16 16 15 15 15 15 15 15 15 15 15 15 15 14 14 14 14 14 14 13 13 13
17 17 16 16 16 16 16 16 16 16 16 16 16 16 16 16 16 15 15 15 15 15 15 15 14 14 14 14 14 14 14 14 13 13 13 13 13 13
16 16 16 16 16 16 16 16 16 16 16 16 16 16 16 15 15 15 15 15 15 15 14 14 14 14 14 14 14 14 13 13 13 13 13 13 12 12
16 16 16 16 16 16 16 15 16 16 15 15 15 15 15 15 15 15 15 14 14 14 14 14 14 14 14 14 13 13 13 13 13 13 12 12 12 12
15 15 15 15 15 15 15 15 15 15 15 15 15 15 15 15 15 14 14 14 14 14 14 14 13 13 13 13 13 13 13 12 12 12 12 12 11 11
14 14 15 15 15 15 15 15 15 15 15 15 15 15 15 14 14 14 14 14 14 13 13 13 13 13 13 13 13 13 13 12 12 12 11 11 11 11
14 14 14 15 15 15 15 14 14 14 14 14 14 14 14 14 14 14 14 14 14 14 14 13 13 13 13 12 12 12 12 12 12 11 11 11 11 10
14 14 14 14 14 14 14 14 14 14 14 13 13 14 14 14 13 13 13 13 13 13 13 13 13 13 12 12 12 12 12 11 11 11 11 11 10 10
13 13 13 13 13 14 14 13 13 13 13 13 13 13 13 13 13 13 13 13 13 13 13 13 13 12 12 12 12 12 11 11 11 10 10 10 10 10
13 13 13 12 12 12 13 13 13 13 13 12 12 13 13 13 13 12 12 12 12 12 12 12 12 12 12 12 11 11 11 11 10 10 10 9 9 9
12 12 12 12 12 12 12 12 12 12 12 12 12 12 12 12 12 12 12 12 12 12 12 12 11 11 11 11 11 11 11 10 10 10 10 9 9 9
12 12 12 12 12 12 12 12 12 12 12 12 12 12 12 12 12 12 12 12 11 11 11 11 11 11 10 10 10 11 10 10 10 9 9 9 9 9
12 12 11 12 12 11 11 11 11 11 11 11 11 11 11 11 11 11 11 11 11 11 11 11 11 10 10 10 10 10 10 10 10 9 9 9 9 8
11 11 11 11 11 11 11 11 11 11 11 10 10 10 11 11 11 11 11 11 11 11 10 10 10 10 10 10 10 10 10 9 9 9 9 8 8 8
10 10 10 10 10 10 10 10 10 10 10 10 10 10 10 10 10 10 10 10 10 10 10 10 10 10 10 10 10 9 9 9 9 9 9 9 8 8
10 10 10 10 10 10 9 9 9 9 9 9 9 9 9 10 10 10 10 10 10 10 10 10 10 10 10 9 9 9 9 9 9 9 8 8 8 8
Wind_Speed
5 5 4 3 3 3 2 2 2 2 3 2 1 1 2 4 7 6 6 9 10 10 10 10 9 8 8 7 6 7 7 6 6 7 8 10 11 12
4 4 4 3 3 3 3 3 3 3 3 1 2 2 2 3 6 6 7 9 10 10 10 9 9 8 8 7 7 6 6 6 6 6 6 6 7 8
5 5 5 4 3 3 3 3 3 3 3 2 1 2 2 2 3 3 4 6 8 11 11 10 10 9 8 7 6 6 6 5 5 6 6 6 6 6
5 5 5 4 4 4 3 3 3 3 4 4 3 3 3 3 3 3 3 5 7 11 12 12 11 10 8 7 7 7 6 6 6 6 6 6 6 5
6 5 5 4 4 4 4 4 4 4 3 4 3 2 2 2 2 3 3 3 5 8 12 12 12 11 10 9 8 7 6 6 6 6 6 6 6 6
5 5 5 5 5 5 4 4 4 4 3 3 3 2 2 2 3 3 3 3 3 4 6 9 11 12 11 10 9 8 7 6 6 6 6 6 7 7
5 4 5 5 6 5 5 3 4 3 3 3 3 2 2 2 3 4 4 3 3 3 3 5 6 6 7 9 9 9 9 8 7 7 7 7 7 8
5 4 5 5 6 7 7 6 5 5 5 4 3 3 3 3 3 4 3 3 3 3 3 4 4 5 6 8 10 12 11 10 9 8 8 8 8 8
4 4 5 5 5 5 6 7 7 8 7 5 4 4 4 3 4 4 4 4 4 3 3 4 4 5 5 7 11 13 13 12 11 10 9 9 8 9
5 5 4 4 4 3 5 5 4 5 7 6 5 5 4 4 4 5 5 5 4 3 3 3 3 4 4 5 11 13 13 13 12 11 10 10 9 9
5 4 4 4 3 3 4 4 4 4 5 7 7 7 7 6 5 3 3 3 4 3 2 3 3 2 2 3 7 13 13 13 12 11 10 10 10 9
3 3 3 3 2 2 3 4 5 5 4 5 5 5 6 6 7 5 4 4 3 2 2 2 2 1 2 2 3 6 9 10 12 11 10 9 9 6
3 3 3 3 3 3 4 4 5 4 4 5 4 4 4 4 4 5 4 4 4 4 2 2 2 2 2 2 2 4 5 5 7 7 9 10 10 8
3 2 2 3 4 5 5 5 6 5 4 4 3 4 4 3 3 4 5 5 4 5 4 3 3 3 3 2 2 2 3 4 5 5 6 8 10 10
3 2 2 4 4 5 7 7 6 4 4 4 4 4 3 3 3 3 3 4 4 5 5 4 3 3 3 3 2 2 2 3 4 4 4 5 5 5
3 3 4 5 5 5 5 5 5 4 4 4 3 3 2 3 3 3 3 3 3 3 2 2 3 3 3 3 2 2 2 2 3 4 4 4 4 6
3 3 4 3 4 4 3 3 3 3 3 3 3 3 3 3 3 3 3 3 3 3 2 2 2 2 2 2 2 2 2 2 3 4 4 4 4 4
3 4 5 5 4 4 4 3 3 3 3 3 3 3 3 3 3 3 3 3 3 3 2 2 2 1 1 1 1 3 3 3 2 3 3 3 4 4
3 5 4 4 4 3 3 3 3 3 3 3 3 2 3 3 3 3 2 2 3 3 3 3 3 3 3 4 2 2 3 3 3 3 3 3 3 3
3 3 3 3 3 3 2 2 2 2 2 2 2 2 2 3 3 2 2 2 3 3 2 2 2 3 4 4 2 2 4 3 3 3 3 2 1 2
2 1 1 1 1 1 1 1 1 2 2 2 2 2 2 2 3 3 2 3 3 3 3 2 3 4 3 2 2 2 2 3 4 3 3 2 2 2
2 1 1 1 1 1 0 1 2 2 2 2 2 2 2 2 2 3 3 3 3 3 3 3 3 3 3 3 4 3 3 2 2 3 5 4 3 3
2 1 1 1 0 1 1 1 2 2 1 1 1 2 2 2 3 3 3 3 2 2 2 2 2 2 3 3 3 3 3 4 3 3 2 5 7 7
Wind_Direction
222 226 232 229 230 239 236 233 229 249 254 227 202 153 141 143 168 177 171 186 192 195 195 198 202 204 203 204 208 213 212 215 224 233 235 233 236 236
214 218 231 234 229 228 228 225 228 234 250 229 213 173 163 170 178 182 181 180 191 194 195 195 196 197 198 200 202 202 206 214 223 225 221 225 232 234
220 214 220 232 239 247 237 233 234 234 237 244 209 189 180 190 174 195 174 177 191 198 195 194 193 193 193 194 197 201 204 209 218 224 224 227 232 239
220 222 227 230 233 254 254 248 240 230 221 231 225 203 200 196 183 199 190 195 187 197 194 191 190 191 191 196 202 208 210 215 223 228 225 226 226 227
218 220 227 229 242 243 241 245 247 246 225 225 232 209 196 184 181 204 216 207 209 193 191 192 194 194 194 197 201 207 212 217 222 222 221 221 219 213
229 224 223 223 236 241 243 245 249 253 245 233 231 211 185 183 195 217 229 216 218 198 189 189 193 197 200 199 202 207 210 215 216 212 210 211 209 205
237 224 223 222 225 229 239 232 235 237 240 239 235 212 203 189 213 224 230 218 213 202 191 195 182 188 196 204 205 210 210 210 211 210 207 207 206 203
243 233 228 219 219 218 225 225 224 230 236 238 233 220 221 223 221 231 230 227 231 199 199 215 193 196 190 193 199 202 206 208 209 211 213 212 208 205
241 247 252 241 225 227 228 225 228 231 234 237 243 246 237 227 228 239 240 239 240 215 207 228 203 205 196 197 192 197 202 205 209 213 214 214 212 209
238 237 238 252 257 250 241 237 234 237 233 230 238 252 250 239 229 230 239 244 242 218 189 228 222 216 201 183 193 193 197 201 205 209 213 215 215 212
239 244 229 230 254 251 240 241 238 243 241 236 229 230 230 227 223 224 233 242 255 235 197 218 237 222 205 204 194 197 198 199 201 206 211 213 215 211
235 229 220 221 237 232 237 246 245 243 245 244 240 235 226 225 215 218 229 236 258 251 202 209 235 225 233 211 188 186 198 204 204 206 208 209 205 201
249 240 231 214 224 229 239 242 247 259 258 248 238 233 231 226 211 212 221 224 235 244 217 195 223 224 229 228 207 195 191 189 196 206 211 208 199 192
278 278 257 217 217 228 236 250 253 257 260 256 247 242 237 229 220 216 215 217 227 235 232 208 214 217 223 238 234 202 195 184 183 190 196 204 203 203
289 313 274 229 216 228 236 246 252 243 245 247 248 244 237 226 215 214 213 211 228 245 234 207 211 220 224 232 225 212 204 198 186 183 187 192 196 196
261 264 247 243 243 240 236 238 233 234 236 245 251 250 234 226 224 216 220 222 226 238 234 218 207 204 220 235 224 218 192 183 187 186 189 194 193 187
256 239 233 233 229 228 226 223 226 229 237 245 248 245 236 235 234 220 223 234 237 227 216 224 209 195 219 222 217 206 197 202 194 187 188 199 206 198
240 236 231 231 227 224 224 223 227 236 242 246 244 243 240 234 237 234 225 223 234 231 217 209 186 181 262 304 239 213 195 196 193 191 196 203 216 205
237 238 232 232 230 229 228 227 231 236 245 253 250 246 247 242 237 235 228 224 231 234 225 208 196 201 230 245 268 241 220 210 192 198 203 213 224 210
248 244 236 233 231 232 233 234 238 234 242 255 251 246 247 243 243 238 226 230 243 246 241 216 209 217 226 234 241 249 221 206 197 200 211 219 191 148
276 273 271 272 273 269 279 278 260 252 246 250 249 246 249 246 247 247 238 225 236 243 237 228 218 211 213 206 232 233 220 199 187 190 199 202 203 190
293 300 310 324 319 311 304 297 287 270 255 257 264 267 267 261 257 257 245 237 236 238 241 236 217 212 215 218 226 229 217 189 196 202 197 199 192 199
285 289 280 289 258 246 275 272 279 302 315 308 296 291 293 292 289 277 267 257 252 250 245 248 252 243 237 228 226 230 215 199 192 189 215 215 205 201
Height
1525 1526 1526 1527 1527 1528 1529 1530 1531 1530 1530 1530 1530 1530 1530 1530 1529 1529 1529 1529 1529 1528 1528 1528 1529 1529 1529 1530 1530 1531 1531 1531 1532 1532 1532 1532 1533 1533
1522 1523 1523 1524 1524 1525 1526 1526 1527 1528 1527 1527 1527 1527 1527 1527 1526 1526 1526 1526 1526 1526 1526 1526 1526 1526 1527 1527 1527 1527 1528 1528 1528 1528 1528 1529 1529 1529
1519 1520 1520 1521 1522 1522 1523 1523 1524 1524 1524 1524 1525 1525 1525 1525 1524 1524 1524 1524 1523 1523 1523 1523 1523 1523 1523 1523 1524 1524 1524 1524 1524 1524 1525 1525 1525 1525
1516 1517 1517 1518 1518 1519 1519 1520 1520 1521 1521 1521 1521 1522 1522 1522 1522 1522 1521 1521 1521 1521 1520 1520 1520 1520 1520 1520 1520 1521 1521 1521 1521 1521 1521 1521 1521 1521
1512 1513 1514 1514 1515 1515 1516 1516 1517 1517 1518 1518 1518 1519 1519 1519 1519 1519 1519 1519 1518 1518 1518 1518 1518 1518 1517 1518 1518 1518 1518 1518 1518 1517 1517 1517 1518 1518
1509 1510 1510 1511 1511 1512 1512 1513 1513 1514 1514 1515 1515 1516 1516 1516 1516 1516 1516 1516 1516 1516 1515 1515 1515 1515 1515 1515 1515 1515 1515 1515 1514 1514 1514 1514 1514 1515
1505 1505 1506 1507 1507 1508 1508 1508 1509 1510 1510 1511 1511 1512 1512 1512 1512 1512 1513 1512 1512 1513 1512 1512 1511 1511 1511 1511 1512 1512 1512 1511 1511 1511 1511 1511 1511 1511
1500 1501 1501 1502 1502 1503 1504 1504 1505 1506 1506 1506 1507 1507 1507 1508 1509 1509 1509 1509 1508 1509 1509 1508 1508 1508 1508 1508 1508 1508 1508 1508 1507 1507 1507 1507 1507 1507
1496 1496 1497 1497 1498 1499 1499 1500 1500 1501 1502 1502 1503 1503 1503 1504 1505 1505 1505 1505 1505 1505 1505 1505 1504 1504 1504 1504 1504 1504 1504 1504 1504 1504 1504 1504 1504 1504
1491 1492 1492 1493 1493 1494 1494 1494 1495 1495 1496 1497 1498 1498 1499 1500 1500 1501 1501 1501 1501 1502 1501 1501 1501 1500 1500 1500 1500 1500 1501 1500 1500 1500 1500 1500 1500 1500
1486 1487 1488 1488 1489 1489 1489 1490 1490 1491 1492 1492 1493 1494 1494 1494 1495 1496 1496 1497 1496 1497 1497 1497 1497 1497 1497 1496 1496 1496 1496 1496 1496 1496 1496 1496 1496 1496
1481 1482 1483 1483 1484 1484 1485 1485 1485 1486 1487 1487 1488 1488 1489 1489 1490 1491 1491 1492 1492 1492 1492 1493 1493 1493 1493 1492 1492 1492 1492 1492 1492 1492 1492 1492 1493 1492
1477 1478 1478 1478 1479 1480 1480 1481 1481 1482 1483 1483 1483 1484 1484 1484 1485 1485 1486 1487 1487 1487 1488 1489 1489 1489 1489 1488 1488 1488 1488 1488 1488 1488 1488 1488 1489 1489
1473 1473 1474 1474 1475 1475 1476 1477 1478 1479 1479 1479 1479 1479 1479 1479 1480 1481 1481 1482 1483 1484 1484 1485 1484 1484 1485 1484 1484 1484 1484 1484 1484 1484 1484 1484 1484 1485
1468 1469 1469 1470 1470 1471 1472 1472 1473 1474 1474 1474 1474 1474 1475 1475 1476 1477 1477 1478 1479 1479 1480 1480 1480 1480 1480 1480 1480 1480 1480 1480 1480 1480 1480 1480 1480 1480
1464 1463 1464 1465 1466 1467 1467 1468 1468 1469 1469 1469 1470 1470 1471 1471 1472 1472 1473 1473 1474 1474 1475 1476 1476 1476 1476 1476 1476 1476 1476 1476 1476 1476 1476 1476 1477 1476
1458 1459 1459 1461 1461 1462 1463 1464 1464 1465 1465 1465 1466 1467 1467 1467 1468 1468 1469 1470 1470 1470 1470 1471 1471 1471 1472 1472 1472 1472 1472 1472 1472 1472 1472 1472 1472 1473
1454 1454 1455 1456 1457 1458 1459 1459 1460 1460 1461 1462 1462 1462 1463 1463 1464 1465 1465 1465 1466 1466 1466 1467 1467 1467 1468 1468 1469 1468 1468 1468 1469 1469 1469 1469 1469 1469
1449 1449 1450 1452 1453 1454 1455 1455 1456 1457 1457 1458 1458 1458 1459 1459 1460 1461 1461 1462 1462 1463 1463 1463 1463 1463 1464 1463 1464 1465 1465 1465 1465 1465 1465 1465 1465 1465
1446 1446 1447 1448 1449 1450 1451 1451 1452 1453 1453 1454 1454 1454 1455 1456 1456 1457 1458 1458 1458 1459 1459 1459 1460 1460 1460 1460 1460 1461 1461 1461 1461 1461 1461 1461 1462 1462
1444 1444 1444 1445 1445 1446 1447 1448 1449 1449 1450 1450 1451 1451 1452 1452 1453 1454 1454 1455 1455 1455 1455 1455 1456 1457 1457 1457 1457 1456 1457 1458 1458 1458 1458 1458 1458 1458
1442 1441 1441 1441 1442 1443 1444 1444 1445 1446 1446 1447 1447 1448 1448 1449 1450 1450 1451 1451 1451 1452 1452 1452 1453 1454 1454 1453 1452 1453 1453 1454 1454 1454 1455 1455 1454 1454
1440 1440 1440 1440 1440 1441 1441 1441 1442 1442 1443 1443 1444 1444 1445 1446 1446 1447 1447 1448 1448 1448 1448 1449 1450 1450 1450 1450 1450 1450 1450 1450 1450 1450 1451 1451 1452 1452